Crosby, ND

9:51 PM CST on December 12, 2017 (GMT -0600)
Crosby

Weather History for KD50 - March, 2013

Change the Weather History Date:

Tuesday, March 12, 2013

  Actual Average (KISN) Record (KISN)
Temperature  
Mean Temperature 13 °F -  
Max Temperature 23 °F 37 °F 76 °F (2007)
Min Temperature 3 °F 18 °F -24 °F (1951)
Degree Days  
Heating Degree Days 52    
Moisture  
Dew Point 7 °F    
Average Humidity 81    
Maximum Humidity 93    
Minimum Humidity 59    
Precipitation  
Precipitation 0.16 in - - ()
Sea Level Pressure  
Sea Level Pressure 30.23 in    
Wind  
Wind Speed 18 mph (West)    
Max Wind Speed 30 mph    
Max Gust Speed 38 mph    
Visibility 9 miles    
Events Rain , Snow    
Averages and records for this station are not official NWS values.
T = Trace of Precipitation, MM = Missing Value Source: NWS Daily Summary

Daily Weather History Graph

Daily Weather History Graph

Search for Another Location

Airport or City:

Trip Planner

Search our weather history database for the weather conditions in past years. The results will help you decide how hot, cold, wet, or windy it might be!

Date:

Astronomy

Mar. 12, 2013 Rise Set
Actual Time 8:12 AM CDT 7:54 PM CDT
Civil Twilight 7:40 AM CDT 8:25 PM CDT
Nautical Twilight 7:04 AM CDT 9:02 PM CDT
Astronomical Twilight 6:26 AM CDT 9:40 PM CDT
Moon 8:12 AM CDT (3/12) 9:22 PM CDT (3/12)
Length of Visible Light 12h 45m
Length of Day
11h 42m
New Moon, 1% of the Moon is Illuminated
Mar 12
New Moon
Mar 19
First Quarter
Mar 27
Full
Apr 2
Last Quarter
Apr 10
New

Hourly Weather History & Observations

Time (CDT) Temp. Windchill Dew Point Humidity Pressure Visibility Wind Dir Wind Speed Gust Speed Precip Events Conditions
12:15 AM 17.6 °F -1.6 °F 15.8 °F 93% 30.08 in 1.2 mi NW 28.8 mph 34.5 mph 0.03 in Snow Light Snow
12:35 AM 17.6 °F -1.9 °F 15.8 °F 93% 30.10 in 1.2 mi NW 29.9 mph 35.7 mph 0.06 in Snow Light Snow
12:55 AM 17.6 °F -1.6 °F 15.8 °F 93% 30.11 in 1.0 mi NW 28.8 mph 38.0 mph 0.12 in Snow Light Snow
1:15 AM 17.6 °F -1.6 °F 15.8 °F 93% 30.11 in 1.5 mi NW 28.8 mph 38.0 mph 0.01 in Snow Light Snow
1:35 AM 15.8 °F -3.4 °F 14.0 °F 93% 30.11 in 2.0 mi NW 26.5 mph 32.2 mph 0.03 in Snow Light Snow
1:55 AM 15.8 °F -3.7 °F 14.0 °F 93% 30.12 in 2.5 mi NW 27.6 mph 32.2 mph 0.04 in Rain Light Freezing Rain
2:15 AM 15.8 °F -3.4 °F 14.0 °F 93% 30.12 in 3.0 mi NW 26.5 mph 33.4 mph N/A   Overcast
2:35 AM 14.0 °F -5.8 °F 12.2 °F 93% 30.13 in 2.5 mi NW 26.5 mph 33.4 mph N/A Rain Light Freezing Rain
2:55 AM 14.0 °F -5.1 °F 10.4 °F 86% 30.15 in 4.0 mi NW 24.2 mph 28.8 mph N/A   Scattered Clouds
3:15 AM 14.0 °F -5.8 °F 10.4 °F 86% 30.15 in 5.0 mi NW 26.5 mph 31.1 mph N/A   Clear
3:35 AM 14.0 °F -5.1 °F 8.6 °F 79% 30.16 in 5.0 mi NW 24.2 mph 31.1 mph N/A   Clear
3:55 AM 12.2 °F -7.1 °F 8.6 °F 85% 30.17 in 6.0 mi NW 23.0 mph - N/A   Clear
4:15 AM 10.4 °F -9.5 °F 6.8 °F 85% 30.17 in 10.0 mi NW 23.0 mph - N/A   Clear
4:35 AM 10.4 °F -8.6 °F 6.8 °F 85% 30.18 in 10.0 mi NW 20.7 mph - N/A   Clear
4:55 AM 8.6 °F -11.0 °F 5.0 °F 85% 30.18 in 10.0 mi NW 20.7 mph - N/A   Clear
5:15 AM 8.6 °F -10.0 °F 5.0 °F 85% 30.19 in 10.0 mi NW 18.4 mph - N/A   Clear
5:35 AM 8.6 °F -10.5 °F 3.2 °F 79% 30.20 in 10.0 mi NW 19.6 mph - N/A   Clear
5:55 AM 6.8 °F -12.9 °F 3.2 °F 85% 30.21 in 10.0 mi NW 19.6 mph - N/A   Clear
6:15 AM 6.8 °F -11.8 °F 1.4 °F 79% 30.22 in 10.0 mi NW 17.3 mph - N/A   Clear
6:35 AM 6.8 °F -12.4 °F 1.4 °F 79% 30.23 in 10.0 mi NW 18.4 mph - N/A   Clear
6:55 AM 5.0 °F -14.2 °F 1.4 °F 85% 30.24 in 10.0 mi NW 17.3 mph - N/A   Clear
7:15 AM 5.0 °F -13.6 °F 1.4 °F 85% 30.24 in 10.0 mi NW 16.1 mph - N/A   Scattered Clouds
7:35 AM 6.8 °F -11.3 °F 1.4 °F 79% 30.24 in 10.0 mi NW 16.1 mph - N/A   Mostly Cloudy
7:55 AM 5.0 °F -13.6 °F -0.4 °F 78% 30.25 in 10.0 mi NW 16.1 mph - N/A   Partly Cloudy
8:35 AM 3.2 °F -15.3 °F -0.4 °F 85% 30.25 in 10.0 mi NW 15.0 mph - N/A   Clear
8:55 AM 3.2 °F -15.3 °F -0.4 °F 85% 30.26 in 10.0 mi WNW 15.0 mph - N/A   Clear
9:15 AM 3.2 °F -14.6 °F -0.4 °F 85% 30.27 in 10.0 mi WNW 13.8 mph - N/A   Clear
9:35 AM 3.2 °F -14.6 °F -0.4 °F 85% 30.27 in 10.0 mi NW 13.8 mph - N/A   Clear
9:55 AM 5.0 °F -12.3 °F -0.4 °F 78% 30.27 in 10.0 mi WNW 13.8 mph - N/A   Clear
10:15 AM 6.8 °F -8.6 °F 1.4 °F 79% 30.28 in 10.0 mi NW 11.5 mph - N/A   Clear
10:35 AM 6.8 °F -7.8 °F 1.4 °F 79% 30.28 in 10.0 mi NW 10.4 mph - N/A   Clear
10:55 AM 6.8 °F -7.8 °F 1.4 °F 79% 30.29 in 10.0 mi NW 10.4 mph - N/A   Clear
11:15 AM 8.6 °F -5.5 °F 3.2 °F 79% 30.29 in 10.0 mi NW 10.4 mph - N/A   Clear
11:35 AM 8.6 °F -6.3 °F 5.0 °F 85% 30.29 in 10.0 mi WNW 11.5 mph - N/A   Clear
11:55 AM 10.4 °F -3.3 °F 6.8 °F 85% 30.29 in 10.0 mi NW 10.4 mph - N/A   Clear
12:15 PM 10.4 °F -3.3 °F 6.8 °F 85% 30.29 in 10.0 mi NW 10.4 mph - N/A   Clear
12:35 PM 12.2 °F -0.2 °F 6.8 °F 79% 30.29 in 10.0 mi NW 9.2 mph - N/A   Clear
12:55 PM 14.0 °F 2.0 °F 8.6 °F 79% 30.30 in 10.0 mi WNW 9.2 mph - N/A   Clear
1:15 PM 14.0 °F 2.0 °F 8.6 °F 79% 30.30 in 10.0 mi NW 9.2 mph - N/A   Clear
1:35 PM 14.0 °F 3.9 °F 8.6 °F 79% 30.29 in 10.0 mi NW 6.9 mph - N/A   Clear
1:55 PM 15.8 °F 4.2 °F 8.6 °F 73% 30.30 in 10.0 mi WNW 9.2 mph - N/A   Clear
2:15 PM 15.8 °F 5.1 °F 8.6 °F 73% 30.30 in 10.0 mi WNW 8.1 mph - N/A   Clear
2:35 PM 15.8 °F 6.1 °F 10.4 °F 79% 30.29 in 10.0 mi WNW 6.9 mph - N/A   Clear
2:55 PM 17.6 °F 9.3 °F 8.6 °F 68% 30.29 in 10.0 mi West 5.8 mph - N/A   Clear
3:15 PM 17.6 °F 10.7 °F 8.6 °F 68% 30.28 in 10.0 mi West 4.6 mph - N/A   Clear
3:35 PM 17.6 °F - 8.6 °F 68% 30.28 in 10.0 mi Calm Calm - N/A   Clear
3:55 PM 17.6 °F - 10.4 °F 73% 30.27 in 10.0 mi Calm Calm - N/A   Clear
4:15 PM 23.0 °F - 10.4 °F 59% 30.27 in 10.0 mi Calm Calm - N/A   Clear
4:35 PM 19.4 °F - 10.4 °F 68% 30.27 in 10.0 mi Calm Calm - N/A   Clear
4:55 PM 19.4 °F 9.5 °F 12.2 °F 74% 30.26 in 10.0 mi SW 8.1 mph - N/A   Clear
5:15 PM 17.6 °F 7.3 °F 12.2 °F 79% 30.26 in 10.0 mi SSW 8.1 mph - N/A   Clear
5:35 PM 17.6 °F 7.3 °F 12.2 °F 79% 30.26 in 10.0 mi SSW 8.1 mph - N/A   Clear
5:55 PM 17.6 °F 8.2 °F 10.4 °F 73% 30.25 in 10.0 mi SSW 6.9 mph - N/A   Clear
6:15 PM 17.6 °F 6.4 °F 10.4 °F 73% 30.25 in 10.0 mi SSW 9.2 mph - N/A   Clear
6:35 PM 17.6 °F 6.4 °F 10.4 °F 73% 30.24 in 10.0 mi South 9.2 mph - N/A   Clear
6:55 PM 17.6 °F 7.3 °F 10.4 °F 73% 30.24 in 10.0 mi South 8.1 mph - N/A   Clear
7:15 PM 15.8 °F 3.4 °F 10.4 °F 79% 30.23 in 10.0 mi SSW 10.4 mph - N/A   Clear
7:35 PM 14.0 °F 2.9 °F 8.6 °F 79% 30.23 in 10.0 mi SSW 8.1 mph - N/A   Clear
7:55 PM 12.2 °F -0.2 °F 8.6 °F 85% 30.23 in 10.0 mi South 9.2 mph - N/A   Clear
8:15 PM 10.4 °F -2.4 °F 6.8 °F 85% 30.23 in 10.0 mi SSW 9.2 mph - N/A   Clear
8:35 PM 8.6 °F -4.7 °F 6.8 °F 92% 30.22 in 10.0 mi South 9.2 mph - N/A   Clear
8:55 PM 8.6 °F -5.5 °F 5.0 °F 85% 30.22 in 10.0 mi South 10.4 mph - N/A   Clear
9:15 PM 8.6 °F -4.7 °F 5.0 °F 85% 30.22 in 10.0 mi South 9.2 mph - N/A   Clear
9:35 PM 6.8 °F -6.9 °F 1.4 °F 79% 30.22 in 10.0 mi SSW 9.2 mph - N/A   Clear
9:55 PM 5.0 °F -10.0 °F 1.4 °F 85% 30.22 in 10.0 mi SSW 10.4 mph - N/A   Clear
10:15 PM 6.8 °F -5.9 °F 1.4 °F 79% 30.22 in 10.0 mi South 8.1 mph - N/A   Clear
10:35 PM 6.8 °F -8.6 °F 3.2 °F 85% 30.21 in 10.0 mi South 11.5 mph - N/A   Clear
10:55 PM 6.8 °F -7.8 °F 1.4 °F 79% 30.21 in 10.0 mi SSW 10.4 mph - N/A   Clear
11:15 PM 6.8 °F -7.8 °F 1.4 °F 79% 30.21 in 10.0 mi SSW 10.4 mph - N/A   Clear
11:35 PM 6.8 °F -6.9 °F 1.4 °F 79% 30.20 in 10.0 mi South 9.2 mph - N/A   Clear
11:55 PM 6.8 °F -5.9 °F 1.4 °F 79% 30.20 in 10.0 mi South 8.1 mph - N/A   Clear